NZWN

Wellington International Airport

Airport
ICAO code
NZWN
IATA Code
WLG
Summary
ICAO Region
APAC
ICAO Territory
Location

Rongotai, Wellington,

Serving
Wellington
Elevation
42 ft
Coordinates
41° 19' 40" S , 174° 48' 38" E
KCC
Metar
Observation
NZWN 280630Z AUTO 18025KT 4000 -RA BR BKN006/// 15/15 Q1017
Station
Wellington Airport
Date/Time
2023-01-28 07:30:00
Wind direction
180°
Wind speed
25 kts
Lowest cloud amount
broken clouds
Temperature
15°C
Dew point
15°C
Humidity
100%
QNH
1017 hPa
Weather condition
n/a

Description

Wellington International Airport (formerly known as Rongotai Airport) is located in the suburb of Rongotai in Wellington, New Zealand.

Climatology

Temperate Marine climate/Oceanic climate (Köppen climate classification Cfb). Moderately cool summer and comparatively warm winter with a temperature range of only 14°C.

Runways

Designator Length Width Surface Rops
16/34 1936 45 ASP Yes/Yes

SKYbrary Partners:

Safety knowledge contributed by: